{"data":{"norad_id":64196,"intl_designator":"2025-113AC","name":"STARLINK-34173","alt_names":[],"object_type":"PAYLOAD","status":"ACTIVE","operator":null,"country":"US","launch_date":"2025-05-28","launch_site_code":"AFETR","launch_vehicle":null,"mission":null,"orbit_class":"UNKNOWN","rcs_meters":null,"size_class":null,"mass_kg":null,"dimensions":null,"purposes":["comms"],"wikipedia_slug":null,"has_3d_model":false,"image_url":null,"decayed_at":null,"tle_current":{"epoch":"2026-05-25T03:25:43.078080Z","epoch_age_seconds":59385,"freshness":"FRESH","line1":"1 64196U 25113AC  26145.14285970  .00017009  00000+0  55836-3 0  9998","line2":"2 64196  53.1592  95.7862 0001147  87.8420 272.2713 15.31715105 56770","mean_motion":15.31715105,"eccentricity":0.0001147,"inclination_deg":53.1592,"raan_deg":95.7862,"arg_perigee_deg":87.842,"mean_anomaly_deg":272.2713,"bstar":0.00055836,"rev_number":5677,"period_min":94.012260850558,"perigee_km":469.9094073499,"apogee_km":471.48052940345,"semimajor_km":6848.8319683767,"source":"CELESTRAK","updated_at":"2026-05-25T13:38:20.315656Z"}}}